Location: Unspecified
(0.0000°N, 0.0000°E)
Time: 07:44:44
(UTC+00:00)

Vanguard 2 Rocket - Pass Details

Date: 10 October 2022
Orbit: 555 x 3321 km, 32.9° (Epoch: 06 December)

Event Time Altitude Azimuth Distance (km) Brightness Sun altitude
Rises 13:01:49 0° 206° (SSW) 4,654 10.7 70.2°
Reaches altitude 10° 13:06:02 10° 187° (S) 4,144 10.5 69.2°
Maximum altitude 13:13:39 19° 146° (SSE) 4,219 10.5 67.4°
Drops below altitude 10° 13:23:41 10° 108° (ESE) 5,685 10.9 65.0°
Sets 13:31:08 0° 93° (E) 7,084 11.2 63.2°
